EZY41LA LBSF-LFLL

Flight info

Callsign EZY41LA
Flight time 2h 11m
Altitude 36000
Route GODEK DCT VEBAR DCT SONIK DCT LABIN DCT GIBLO DCT PIMOT/N0448F370 DCT AMVAR
Aircraft A320/M-SDE3FGHIRWY/LB1

Departure

Time 2026-04-28 09:21
Airport Sofia Airport (LBSF)

Arrival

Time 2026-04-28 11:32
Airport Lyon Saint-Exupéry Airport (LFLL)
Time Latitude Longitude Altitude Speed Heading
2026-04-28 08:40 42.69132 23.41437 1753 ft 0 kts 252°
2026-04-28 09:10 42.69135 23.41450 1745 ft 4 kts 250°
2026-04-28 09:10 42.69146 23.41483 1748 ft 4 kts 239°
2026-04-28 09:10 42.69161 23.41512 1744 ft 4 kts 221°
2026-04-28 09:11 42.69174 23.41525 1750 ft 1 kts 212°
2026-04-28 09:11 42.69176 23.41527 1750 ft 0 kts 212°
2026-04-28 09:15 42.69164 23.41528 1745 ft 2 kts 161°
2026-04-28 09:15 42.69156 23.41539 1746 ft 1 kts 141°
2026-04-28 09:16 42.69132 23.41565 1747 ft 7 kts 141°
2026-04-28 09:16 42.69083 23.41629 1749 ft 12 kts 112°
2026-04-28 09:16 42.69104 23.41763 1751 ft 17 kts 78°
2026-04-28 09:16 42.69142 23.41943 1750 ft 22 kts 74°
2026-04-28 09:17 42.69192 23.42160 1745 ft 19 kts 71°
2026-04-28 09:17 42.69230 23.42321 1748 ft 10 kts 73°
2026-04-28 09:17 42.69286 23.42410 1748 ft 15 kts 27°
2026-04-28 09:17 42.69387 23.42434 1753 ft 14 kts 17°
2026-04-28 09:18 42.69413 23.42513 1751 ft 16 kts 91°
2026-04-28 09:18 42.69397 23.42762 1753 ft 23 kts 97°
2026-04-28 09:18 42.69389 23.42916 1753 ft 26 kts 95°
2026-04-28 09:18 42.69370 23.43183 1753 ft 31 kts 95°
2026-04-28 09:19 42.69350 23.43489 1753 ft 34 kts 94°
2026-04-28 09:19 42.69333 23.43798 1778 ft 21 kts 95°
2026-04-28 09:19 42.69358 23.43935 1783 ft 15 kts 33°
2026-04-28 09:19 42.69464 23.43956 1785 ft 9 kts
2026-04-28 09:20 42.69520 23.43914 1782 ft 13 kts 276°
2026-04-28 09:20 42.69522 23.43880 1784 ft 2 kts 274°
2026-04-28 09:20 42.69535 23.43645 1754 ft 60 kts 275°
2026-04-28 09:20 42.69588 23.42776 1754 ft 122 kts 274°
2026-04-28 09:21 42.69673 23.41398 1764 ft 168 kts 276°
2026-04-28 09:21 42.69777 23.39856 2474 ft 159 kts 277°
2026-04-28 09:21 42.70073 23.38391 3035 ft 166 kts 295°
2026-04-28 09:21 42.70708 23.36972 3323 ft 186 kts 311°
2026-04-28 09:22 42.71739 23.35746 3574 ft 208 kts 329°
2026-04-28 09:22 42.73163 23.34983 3843 ft 234 kts 349°
2026-04-28 09:22 42.74860 23.34679 4236 ft 257 kts 352°
2026-04-28 09:22 42.76669 23.34381 5021 ft 264 kts 352°
2026-04-28 09:23 42.78503 23.34080 5942 ft 267 kts 351°
2026-04-28 09:23 42.80351 23.33771 6845 ft 268 kts 351°
2026-04-28 09:23 42.82202 23.33457 7722 ft 269 kts 351°
2026-04-28 09:23 42.84036 23.33149 8589 ft 270 kts 350°
2026-04-28 09:24 42.85875 23.32680 9457 ft 268 kts 336°
2026-04-28 09:24 42.87438 23.31275 10217 ft 270 kts 316°
2026-04-28 09:24 42.88850 23.29440 10508 ft 292 kts 316°
2026-04-28 09:24 42.90379 23.27462 10724 ft 313 kts 316°
2026-04-28 09:25 42.91994 23.25389 11277 ft 322 kts 316°
2026-04-28 09:25 42.93624 23.23303 11972 ft 327 kts 316°
2026-04-28 09:25 42.95298 23.21167 12660 ft 331 kts 316°
2026-04-28 09:25 42.96992 23.19004 13350 ft 335 kts 316°
2026-04-28 09:26 42.98705 23.16819 14035 ft 339 kts 316°
2026-04-28 09:26 43.00438 23.14611 14614 ft 342 kts 316°
2026-04-28 09:26 43.02192 23.12379 15216 ft 346 kts 316°
2026-04-28 09:26 43.03956 23.10131 15829 ft 349 kts 316°
2026-04-28 09:27 43.07532 23.05554 17032 ft 355 kts 316°
2026-04-28 09:27 43.09320 23.03258 17623 ft 358 kts 316°
2026-04-28 09:27 43.11128 23.00886 18190 ft 362 kts 312°
2026-04-28 09:28 43.12674 22.98147 18708 ft 365 kts 302°
2026-04-28 09:28 43.13803 22.95027 19217 ft 368 kts 292°
2026-04-28 09:28 43.14725 22.91750 19747 ft 370 kts 292°
2026-04-28 09:28 43.15660 22.88461 20229 ft 372 kts 292°
2026-04-28 09:29 43.16604 22.85158 20752 ft 374 kts 292°
2026-04-28 09:29 43.17556 22.81829 21274 ft 376 kts 292°
2026-04-28 09:29 43.18509 22.78487 21795 ft 377 kts 292°
2026-04-28 09:29 43.19464 22.75130 22278 ft 380 kts 292°
2026-04-28 09:30 43.20427 22.71735 22749 ft 382 kts 292°
2026-04-28 09:30 43.21388 22.68335 23226 ft 384 kts 292°
2026-04-28 09:30 43.22356 22.64908 23696 ft 386 kts 292°
2026-04-28 09:30 43.23328 22.61460 24090 ft 389 kts 292°
2026-04-28 09:31 43.24304 22.57993 24468 ft 391 kts 292°
2026-04-28 09:31 43.25281 22.54515 24857 ft 392 kts 292°
2026-04-28 09:31 43.26264 22.51011 25228 ft 394 kts 292°
2026-04-28 09:31 43.27242 22.47531 25583 ft 396 kts 292°
2026-04-28 09:32 43.28233 22.43996 25940 ft 398 kts 292°
2026-04-28 09:32 43.29228 22.40439 26296 ft 400 kts 292°
2026-04-28 09:32 43.30225 22.36878 26649 ft 402 kts 292°
2026-04-28 09:32 43.31230 22.33289 26997 ft 404 kts 292°
2026-04-28 09:33 43.32238 22.29685 27343 ft 406 kts 292°
2026-04-28 09:33 43.33251 22.26057 27687 ft 407 kts 292°
2026-04-28 09:33 43.34264 22.22414 28032 ft 409 kts 291°
2026-04-28 09:33 43.35282 22.18743 28372 ft 411 kts 291°
2026-04-28 09:34 43.36299 22.15065 28703 ft 413 kts 291°
2026-04-28 09:34 43.37321 22.11367 29023 ft 415 kts 291°
2026-04-28 09:34 43.38345 22.07657 29332 ft 416 kts 291°
2026-04-28 09:34 43.39374 22.03925 29631 ft 418 kts 291°
2026-04-28 09:35 43.40407 22.00177 29921 ft 420 kts 291°
2026-04-28 09:35 43.41441 21.96416 30204 ft 421 kts 291°
2026-04-28 09:35 43.42479 21.92640 30458 ft 423 kts 291°
2026-04-28 09:35 43.43520 21.88850 30690 ft 424 kts 291°
2026-04-28 09:36 43.44561 21.85053 31053 ft 423 kts 291°
2026-04-28 09:36 43.45592 21.81282 31449 ft 420 kts 291°
2026-04-28 09:36 43.46620 21.77522 31809 ft 419 kts 291°
2026-04-28 09:36 43.47631 21.73829 32149 ft 417 kts 291°
2026-04-28 09:37 43.48650 21.70090 32487 ft 416 kts 291°
2026-04-28 09:37 43.49659 21.66364 32820 ft 415 kts 291°
2026-04-28 09:37 43.50665 21.62642 33154 ft 414 kts 292°
2026-04-28 09:37 43.51671 21.58925 33490 ft 413 kts 292°
2026-04-28 09:38 43.52672 21.55222 33822 ft 412 kts 292°
2026-04-28 09:38 43.53667 21.51529 34139 ft 411 kts 292°
2026-04-28 09:38 43.54662 21.47839 34416 ft 410 kts 292°
2026-04-28 09:38 43.55656 21.44155 34685 ft 410 kts 292°
2026-04-28 09:39 43.56649 21.40474 34951 ft 409 kts 292°
2026-04-28 09:39 43.57638 21.36797 35214 ft 409 kts 291°
2026-04-28 09:39 43.58622 21.33125 35461 ft 408 kts 291°
2026-04-28 09:39 43.59603 21.29450 35704 ft 408 kts 291°
2026-04-28 09:40 43.60579 21.25782 35939 ft 407 kts 291°
2026-04-28 09:40 43.61554 21.22118 36153 ft 407 kts 291°
2026-04-28 09:40 43.62515 21.18505 36363 ft 406 kts 291°
2026-04-28 09:40 43.63503 21.14794 36574 ft 406 kts 291°
2026-04-28 09:41 43.64464 21.11185 36775 ft 406 kts 291°
2026-04-28 09:41 43.65438 21.07525 36976 ft 406 kts 291°
2026-04-28 09:41 43.66409 21.03870 37181 ft 405 kts 291°
2026-04-28 09:41 43.67376 21.00217 37378 ft 405 kts 291°
2026-04-28 09:42 43.68341 20.96561 37573 ft 405 kts 291°
2026-04-28 09:42 43.69302 20.92913 37771 ft 404 kts 291°
2026-04-28 09:42 43.70260 20.89265 37958 ft 404 kts 291°
2026-04-28 09:42 43.71216 20.85612 38113 ft 404 kts 291°
2026-04-28 09:43 43.73121 20.78320 38144 ft 402 kts 291°
2026-04-28 09:43 43.75028 20.71044 38149 ft 402 kts 291°
2026-04-28 09:44 43.76928 20.63762 38137 ft 402 kts 291°
2026-04-28 09:44 43.78818 20.56469 38155 ft 402 kts 291°
2026-04-28 09:45 43.80708 20.49176 38168 ft 403 kts 291°
2026-04-28 09:45 43.82593 20.41875 38167 ft 403 kts 291°
2026-04-28 09:46 43.84478 20.34558 38165 ft 403 kts 291°
2026-04-28 09:46 43.86339 20.27291 38158 ft 403 kts 290°
2026-04-28 09:47 43.88209 20.19974 38153 ft 403 kts 290°
2026-04-28 09:47 43.90071 20.12649 38150 ft 402 kts 290°
2026-04-28 09:48 43.91932 20.05324 38150 ft 402 kts 290°
2026-04-28 09:48 43.93794 19.98016 38148 ft 402 kts 290°
2026-04-28 09:49 43.95648 19.90705 38132 ft 402 kts 290°
2026-04-28 09:49 43.97483 19.83384 38137 ft 401 kts 290°
2026-04-28 09:50 43.99312 19.76064 38143 ft 401 kts 290°
2026-04-28 09:50 44.01140 19.68740 38144 ft 401 kts 290°
2026-04-28 09:51 44.02967 19.61424 38141 ft 401 kts 290°
2026-04-28 09:51 44.04779 19.54145 38134 ft 401 kts 290°
2026-04-28 09:52 44.06597 19.46824 38137 ft 401 kts 290°
2026-04-28 09:52 44.08408 19.39496 38137 ft 401 kts 290°
2026-04-28 09:53 44.10212 19.32164 38140 ft 401 kts 290°
2026-04-28 09:53 44.12012 19.24822 38133 ft 401 kts 290°
2026-04-28 09:54 44.13718 19.17439 38134 ft 401 kts 283°
2026-04-28 09:54 44.14631 19.09816 38134 ft 401 kts 281°
2026-04-28 09:55 44.15513 19.02133 38135 ft 401 kts 281°
2026-04-28 09:55 44.16389 18.94456 38132 ft 401 kts 281°
2026-04-28 09:56 44.17263 18.86790 38121 ft 401 kts 281°
2026-04-28 09:56 44.18135 18.79120 38125 ft 401 kts 281°
2026-04-28 09:57 44.18999 18.71450 38128 ft 400 kts 281°
2026-04-28 09:57 44.19854 18.63794 38129 ft 400 kts 281°
2026-04-28 09:58 44.20703 18.56142 38125 ft 400 kts 280°
2026-04-28 09:58 44.21550 18.48483 38121 ft 400 kts 281°
2026-04-28 09:59 44.22391 18.40822 38123 ft 400 kts 280°
2026-04-28 09:59 44.23221 18.33214 38122 ft 400 kts 280°
2026-04-28 10:00 44.24049 18.25542 38121 ft 400 kts 280°
2026-04-28 10:00 44.24878 18.17878 38124 ft 400 kts 280°
2026-04-28 10:01 44.25705 18.10206 38117 ft 400 kts 280°
2026-04-28 10:01 44.26517 18.02522 38121 ft 400 kts 280°
2026-04-28 10:02 44.27326 17.94833 38125 ft 401 kts 280°
2026-04-28 10:02 44.28131 17.87145 38129 ft 401 kts 280°
2026-04-28 10:03 44.28927 17.79451 38118 ft 400 kts 280°
2026-04-28 10:03 44.29723 17.71765 38117 ft 400 kts 280°
2026-04-28 10:04 44.30516 17.64093 38117 ft 399 kts 280°
2026-04-28 10:04 44.31301 17.56410 38118 ft 400 kts 279°
2026-04-28 10:05 44.32072 17.48774 38116 ft 400 kts 280°
2026-04-28 10:05 44.32847 17.41093 38108 ft 400 kts 279°
2026-04-28 10:06 44.33620 17.33404 38112 ft 400 kts 279°
2026-04-28 10:06 44.34380 17.25707 38115 ft 400 kts 279°
2026-04-28 10:07 44.35142 17.18016 38120 ft 400 kts 279°
2026-04-28 10:07 44.35900 17.10320 38116 ft 400 kts 279°
2026-04-28 10:08 44.36520 17.03924 38106 ft 400 kts 279°
2026-04-28 10:08 44.37261 16.96228 38108 ft 399 kts 279°
2026-04-28 10:09 44.37994 16.88548 38109 ft 399 kts 279°
2026-04-28 10:09 44.38729 16.80869 38106 ft 398 kts 279°
2026-04-28 10:10 44.39461 16.73186 38106 ft 398 kts 279°
2026-04-28 10:10 44.40173 16.65550 38097 ft 398 kts 279°
2026-04-28 10:11 44.40886 16.57864 38104 ft 399 kts 278°
2026-04-28 10:11 44.41593 16.50178 38107 ft 399 kts 278°
2026-04-28 10:12 44.42298 16.42473 38098 ft 399 kts 278°
2026-04-28 10:12 44.43000 16.34780 38098 ft 399 kts 278°
2026-04-28 10:13 44.43697 16.27084 38092 ft 399 kts 278°
2026-04-28 10:13 44.44387 16.19389 38095 ft 399 kts 278°
2026-04-28 10:14 44.45315 16.11807 38094 ft 397 kts 285°
2026-04-28 10:14 44.46746 16.04340 38095 ft 397 kts 285°
2026-04-28 10:15 44.48164 15.96872 38095 ft 397 kts 285°
2026-04-28 10:15 44.49579 15.89396 38090 ft 397 kts 285°
2026-04-28 10:16 44.50988 15.81917 38085 ft 397 kts 285°
2026-04-28 10:16 44.52390 15.74425 38092 ft 397 kts 285°
2026-04-28 10:17 44.53787 15.66928 38094 ft 397 kts 285°
2026-04-28 10:17 44.55192 15.59420 38083 ft 398 kts 285°
2026-04-28 10:18 44.56576 15.51967 38088 ft 398 kts 285°
2026-04-28 10:18 44.57964 15.44455 38094 ft 398 kts 285°
2026-04-28 10:19 44.59343 15.36943 38091 ft 397 kts 285°
2026-04-28 10:19 44.60714 15.29428 38095 ft 398 kts 285°
2026-04-28 10:20 44.62080 15.21914 38088 ft 398 kts 284°
2026-04-28 10:20 44.63445 15.14391 38089 ft 398 kts 284°
2026-04-28 10:21 44.64812 15.06851 38093 ft 398 kts 284°
2026-04-28 10:21 44.66176 14.99311 38096 ft 398 kts 284°
2026-04-28 10:22 44.67526 14.91766 38095 ft 398 kts 284°
2026-04-28 10:22 44.68866 14.84219 38095 ft 398 kts 284°
2026-04-28 10:23 44.70208 14.76668 38093 ft 398 kts 284°
2026-04-28 10:23 44.71551 14.69112 38095 ft 398 kts 284°
2026-04-28 10:24 44.72877 14.61606 38090 ft 398 kts 284°
2026-04-28 10:24 44.74207 14.54043 38090 ft 398 kts 284°
2026-04-28 10:25 44.75533 14.46475 38085 ft 398 kts 284°
2026-04-28 10:25 44.76854 14.38905 38087 ft 398 kts 284°
2026-04-28 10:26 44.78171 14.31323 38083 ft 398 kts 284°
2026-04-28 10:26 44.79471 14.23796 38081 ft 398 kts 284°
2026-04-28 10:27 44.80769 14.16214 38081 ft 398 kts 284°
2026-04-28 10:27 44.82063 14.08629 38085 ft 398 kts 284°
2026-04-28 10:28 44.83361 14.01043 38092 ft 398 kts 284°
2026-04-28 10:29 44.85294 13.89665 38097 ft 398 kts 284°
2026-04-28 10:29 44.86582 13.82062 38089 ft 398 kts 284°
2026-04-28 10:30 44.87857 13.74469 38093 ft 398 kts 284°
2026-04-28 10:30 44.89127 13.66864 38088 ft 398 kts 284°
2026-04-28 10:31 44.90394 13.59253 38091 ft 398 kts 283°
2026-04-28 10:31 44.91652 13.51651 38085 ft 398 kts 283°
2026-04-28 10:32 44.92906 13.44042 38080 ft 398 kts 283°
2026-04-28 10:32 44.94146 13.36472 38079 ft 398 kts 283°
2026-04-28 10:33 44.95388 13.28847 38081 ft 398 kts 283°
2026-04-28 10:33 44.96630 13.21224 38074 ft 399 kts 283°
2026-04-28 10:34 44.97870 13.13590 38074 ft 399 kts 283°
2026-04-28 10:34 44.99058 13.05944 38086 ft 399 kts 282°
2026-04-28 10:35 45.00069 12.98236 38082 ft 399 kts 281°
2026-04-28 10:35 45.01019 12.90508 38082 ft 399 kts 281°
2026-04-28 10:36 45.01990 12.82790 38085 ft 399 kts 281°
2026-04-28 10:36 45.02969 12.75111 38083 ft 399 kts 281°
2026-04-28 10:37 45.03951 12.67391 38083 ft 399 kts 281°
2026-04-28 10:37 45.04932 12.59655 38083 ft 399 kts 281°
2026-04-28 10:38 45.05899 12.51925 38080 ft 399 kts 281°
2026-04-28 10:38 45.06869 12.44194 38078 ft 399 kts 281°
2026-04-28 10:39 45.07829 12.36457 38076 ft 399 kts 280°
2026-04-28 10:39 45.08778 12.28719 38077 ft 399 kts 280°
2026-04-28 10:40 45.09722 12.20983 38082 ft 399 kts 280°
2026-04-28 10:40 45.10663 12.13241 38083 ft 399 kts 280°
2026-04-28 10:41 45.11603 12.05502 38076 ft 399 kts 280°
2026-04-28 10:41 45.12539 11.97756 38085 ft 399 kts 280°
2026-04-28 10:42 45.13467 11.90012 38097 ft 399 kts 280°
2026-04-28 10:42 45.14388 11.82267 38097 ft 399 kts 280°
2026-04-28 10:43 45.15304 11.74521 38095 ft 399 kts 280°
2026-04-28 10:43 45.16204 11.66818 38102 ft 399 kts 280°
2026-04-28 10:44 45.17107 11.59068 38086 ft 399 kts 280°
2026-04-28 10:44 45.18018 11.51305 38087 ft 399 kts 280°
2026-04-28 10:45 45.18922 11.43534 38090 ft 400 kts 279°
2026-04-28 10:45 45.19810 11.35740 38090 ft 400 kts 279°
2026-04-28 10:46 45.20695 11.27951 38101 ft 400 kts 279°
2026-04-28 10:46 45.21576 11.20158 38062 ft 400 kts 279°
2026-04-28 10:47 45.22456 11.12361 38064 ft 400 kts 279°
2026-04-28 10:47 45.23326 11.04555 38063 ft 400 kts 279°
2026-04-28 10:48 45.24186 10.96804 38062 ft 400 kts 279°
2026-04-28 10:48 45.25049 10.88991 38066 ft 400 kts 279°
2026-04-28 10:49 45.25913 10.81185 38083 ft 400 kts 279°
2026-04-28 10:49 45.26767 10.73370 38090 ft 400 kts 279°
2026-04-28 10:50 45.27611 10.65556 38097 ft 401 kts 279°
2026-04-28 10:50 45.28450 10.57728 38077 ft 401 kts 279°
2026-04-28 10:51 45.29287 10.49903 38074 ft 401 kts 279°
2026-04-28 10:51 45.30117 10.42076 38061 ft 401 kts 279°
2026-04-28 10:52 45.30945 10.34245 38068 ft 401 kts 279°
2026-04-28 10:52 45.31769 10.26405 38070 ft 401 kts 279°
2026-04-28 10:53 45.32587 10.18570 38068 ft 401 kts 279°
2026-04-28 10:53 45.33392 10.10729 38066 ft 401 kts 279°
2026-04-28 10:54 45.34190 10.02927 38062 ft 401 kts 278°
2026-04-28 10:54 45.34987 9.95085 38056 ft 401 kts 278°
2026-04-28 10:55 45.35774 9.87231 38059 ft 401 kts 278°
2026-04-28 10:55 45.36461 9.79361 38101 ft 401 kts 277°
2026-04-28 10:56 45.37037 9.71471 38115 ft 401 kts 276°
2026-04-28 10:56 45.37604 9.63579 38122 ft 401 kts 276°
2026-04-28 10:57 45.38193 9.55685 38141 ft 401 kts 277°
2026-04-28 10:57 45.38687 9.49126 38146 ft 401 kts 277°
2026-04-28 10:58 45.39270 9.41242 38143 ft 401 kts 276°
2026-04-28 10:58 45.39846 9.33352 38097 ft 401 kts 276°
2026-04-28 10:59 45.40414 9.25452 38099 ft 401 kts 276°
2026-04-28 10:59 45.40979 9.17557 38104 ft 401 kts 276°
2026-04-28 11:00 45.41539 9.09661 38098 ft 401 kts 276°
2026-04-28 11:00 45.42090 9.01824 38096 ft 400 kts 276°
2026-04-28 11:01 45.42642 8.93931 38085 ft 400 kts 276°
2026-04-28 11:01 45.43189 8.86045 38092 ft 401 kts 276°
2026-04-28 11:02 45.43727 8.78143 38090 ft 401 kts 276°
2026-04-28 11:02 45.44256 8.70246 38069 ft 401 kts 276°
2026-04-28 11:03 45.44786 8.62336 38083 ft 401 kts 276°
2026-04-28 11:03 45.45314 8.54429 38087 ft 401 kts 276°
2026-04-28 11:04 45.45826 8.46572 38089 ft 401 kts 275°
2026-04-28 11:04 45.46336 8.38658 38078 ft 401 kts 275°
2026-04-28 11:05 45.46838 8.30732 38080 ft 401 kts 275°
2026-04-28 11:05 45.47339 8.22803 38083 ft 401 kts 275°
2026-04-28 11:06 45.47846 8.14887 38084 ft 402 kts 275°
2026-04-28 11:06 45.48338 8.06959 38084 ft 402 kts 275°
2026-04-28 11:07 45.48820 7.99006 38071 ft 402 kts 275°
2026-04-28 11:07 45.49292 7.91054 38093 ft 403 kts 275°
2026-04-28 11:08 45.49767 7.83100 38093 ft 403 kts 275°
2026-04-28 11:08 45.50237 7.75148 38097 ft 403 kts 275°
2026-04-28 11:09 45.50613 7.67254 38094 ft 402 kts 273°
2026-04-28 11:09 45.50758 7.59271 38100 ft 403 kts 271°
2026-04-28 11:10 45.50850 7.51287 38081 ft 402 kts 271°
2026-04-28 11:10 45.50977 7.43297 37805 ft 405 kts 271°
2026-04-28 11:10 45.51053 7.39259 36494 ft 410 kts 272°
2026-04-28 11:11 45.51135 7.35167 35062 ft 415 kts 271°
2026-04-28 11:11 45.51215 7.31042 33627 ft 418 kts 271°
2026-04-28 11:11 45.51292 7.26878 32216 ft 420 kts 270°
2026-04-28 11:11 45.51364 7.22797 31723 ft 404 kts 270°
2026-04-28 11:12 45.51430 7.18812 31192 ft 400 kts 270°
2026-04-28 11:12 45.51493 7.14871 30651 ft 395 kts 270°
2026-04-28 11:12 45.51555 7.10973 30117 ft 392 kts 270°
2026-04-28 11:12 45.51613 7.07099 29543 ft 388 kts 270°
2026-04-28 11:13 45.51668 7.03276 29032 ft 383 kts 270°
2026-04-28 11:13 45.51724 6.99506 28521 ft 378 kts 270°
2026-04-28 11:13 45.51779 6.95778 28014 ft 374 kts 270°
2026-04-28 11:13 45.51834 6.92096 27524 ft 370 kts 270°
2026-04-28 11:14 45.51884 6.88491 27040 ft 367 kts 270°
2026-04-28 11:14 45.51931 6.84886 26559 ft 362 kts 270°
2026-04-28 11:14 45.51978 6.81309 26093 ft 359 kts 270°
2026-04-28 11:14 45.52025 6.77763 25633 ft 356 kts 270°
2026-04-28 11:15 45.52070 6.74255 25188 ft 353 kts 270°
2026-04-28 11:15 45.52114 6.70780 24757 ft 349 kts 270°
2026-04-28 11:15 45.52159 6.67327 24310 ft 346 kts 270°
2026-04-28 11:15 45.52201 6.63912 23898 ft 343 kts 269°
2026-04-28 11:16 45.52239 6.60523 23461 ft 340 kts 269°
2026-04-28 11:16 45.52276 6.57165 23037 ft 337 kts 269°
2026-04-28 11:16 45.52312 6.53838 22628 ft 335 kts 269°
2026-04-28 11:16 45.52349 6.50528 22228 ft 333 kts 269°
2026-04-28 11:17 45.52387 6.47280 21821 ft 330 kts 269°
2026-04-28 11:17 45.52422 6.44020 21437 ft 327 kts 269°
2026-04-28 11:17 45.52453 6.40789 21028 ft 325 kts 269°
2026-04-28 11:17 45.52484 6.37575 20620 ft 324 kts 269°
2026-04-28 11:18 45.52513 6.34366 20213 ft 323 kts 269°
2026-04-28 11:18 45.52540 6.31169 19795 ft 322 kts 269°
2026-04-28 11:18 45.52565 6.27968 19374 ft 323 kts 269°
2026-04-28 11:18 45.52592 6.24779 18961 ft 321 kts 269°
2026-04-28 11:19 45.52617 6.21598 18544 ft 321 kts 269°
2026-04-28 11:19 45.52641 6.18416 18092 ft 320 kts 269°
2026-04-28 11:19 45.52666 6.15254 17659 ft 318 kts 269°
2026-04-28 11:19 45.52690 6.12115 17245 ft 316 kts 269°
2026-04-28 11:20 45.52714 6.08998 16841 ft 314 kts 268°
2026-04-28 11:20 45.52735 6.05928 16441 ft 312 kts 268°
2026-04-28 11:20 45.52754 6.02834 16040 ft 312 kts 268°
2026-04-28 11:20 45.52774 5.99728 15633 ft 313 kts 268°
2026-04-28 11:21 45.52795 5.96618 15237 ft 313 kts 268°
2026-04-28 11:21 45.52814 5.93513 14825 ft 312 kts 268°
2026-04-28 11:21 45.52830 5.90425 14427 ft 312 kts 268°
2026-04-28 11:21 45.52844 5.87334 14016 ft 311 kts 268°
2026-04-28 11:22 45.52859 5.84243 13598 ft 311 kts 267°
2026-04-28 11:22 45.52875 5.81150 13157 ft 310 kts 267°
2026-04-28 11:22 45.52889 5.78081 12741 ft 309 kts 267°
2026-04-28 11:22 45.52900 5.75024 12325 ft 308 kts 267°
2026-04-28 11:23 45.52910 5.71966 11900 ft 308 kts 267°
2026-04-28 11:23 45.52920 5.68915 11479 ft 308 kts 267°
2026-04-28 11:23 45.52929 5.65862 11051 ft 308 kts 267°
2026-04-28 11:23 45.52940 5.62817 10616 ft 307 kts 267°
2026-04-28 11:24 45.52951 5.59786 10334 ft 302 kts 267°
2026-04-28 11:24 45.52963 5.56844 10204 ft 291 kts 267°
2026-04-28 11:24 45.52971 5.54029 10010 ft 284 kts 267°
2026-04-28 11:24 45.52975 5.51221 9950 ft 283 kts 267°
2026-04-28 11:25 45.52979 5.48382 9415 ft 290 kts 267°
2026-04-28 11:25 45.52982 5.45540 9139 ft 284 kts 267°
2026-04-28 11:25 45.52985 5.42734 8693 ft 281 kts 267°
2026-04-28 11:25 45.52986 5.39954 8018 ft 279 kts 267°
2026-04-28 11:26 45.52985 5.37197 7352 ft 277 kts 268°
2026-04-28 11:26 45.52985 5.34463 6739 ft 274 kts 268°
2026-04-28 11:26 45.52987 5.31758 6098 ft 271 kts 268°
2026-04-28 11:26 45.52989 5.29083 5443 ft 269 kts 268°
2026-04-28 11:27 45.52992 5.26465 5114 ft 255 kts 268°
2026-04-28 11:27 45.52994 5.24029 4964 ft 235 kts 267°
2026-04-28 11:27 45.52993 5.21778 4865 ft 222 kts 268°
2026-04-28 11:27 45.52990 5.19618 4762 ft 213 kts 267°
2026-04-28 11:28 45.52986 5.17542 4662 ft 205 kts 267°
2026-04-28 11:28 45.53093 5.15520 4383 ft 209 kts 282°
2026-04-28 11:28 45.53692 5.13623 4146 ft 211 kts 303°
2026-04-28 11:28 45.54732 5.12169 3955 ft 210 kts 325°
2026-04-28 11:29 45.56066 5.11349 3735 ft 211 kts 347°
2026-04-28 11:29 45.57526 5.11119 3477 ft 212 kts 354°
2026-04-28 11:29 45.59005 5.10943 3194 ft 215 kts 354°
2026-04-28 11:29 45.60499 5.10764 2907 ft 216 kts 354°
2026-04-28 11:30 45.61997 5.10583 2626 ft 216 kts 354°
2026-04-28 11:30 45.64885 5.10233 2064 ft 198 kts 355°
2026-04-28 11:30 45.66206 5.10073 1824 ft 182 kts 355°
2026-04-28 11:31 45.67388 5.09930 1592 ft 161 kts 355°
2026-04-28 11:31 45.68457 5.09811 1400 ft 150 kts 355°
2026-04-28 11:31 45.69479 5.09681 1176 ft 146 kts 354°
2026-04-28 11:31 45.70489 5.09559 1001 ft 145 kts 353°
2026-04-28 11:32 45.71502 5.09431 835 ft 143 kts 355°
2026-04-28 11:32 45.72359 5.09328 814 ft 100 kts 355°
2026-04-28 11:32 45.72836 5.09270 803 ft 28 kts 355°
2026-04-28 11:32 45.72979 5.09191 799 ft 21 kts 288°
2026-04-28 11:33 45.72968 5.09039 795 ft 17 kts 263°
2026-04-28 11:33 45.72959 5.08849 792 ft 21 kts 267°
2026-04-28 11:33 45.72950 5.08637 792 ft 22 kts 262°
2026-04-28 11:33 45.72925 5.08423 790 ft 18 kts 237°
2026-04-28 11:34 45.72817 5.08354 791 ft 18 kts 173°
2026-04-28 11:34 45.72687 5.08372 791 ft 20 kts 174°
2026-04-28 11:34 45.72552 5.08389 796 ft 19 kts 176°
2026-04-28 11:34 45.72417 5.08406 797 ft 17 kts 174°
2026-04-28 11:35 45.72343 5.08391 798 ft 10 kts 225°
2026-04-28 11:35 45.72320 5.08293 797 ft 10 kts 244°
2026-04-28 11:35 45.72262 5.08292 797 ft 8 kts 150°
2026-04-28 11:35 45.72219 5.08318 798 ft 5 kts 168°
2026-04-28 11:36 45.72187 5.08317 798 ft 4 kts 187°
2026-04-28 11:36 45.72154 5.08310 798 ft 3 kts 189°
2026-04-28 11:36 45.72143 5.08283 797 ft 5 kts 267°
2026-04-28 11:36 45.72144 5.08212 796 ft 6 kts 270°
2026-04-28 11:37 45.72144 5.08179 797 ft 2 kts 269°